TimeEST,TemperatureF,Dew PointF,Humidity,Sea Level PressureIn,VisibilityMPH,Wind Direction,Wind SpeedMPH,Gust SpeedMPH,PrecipitationIn,Events,Conditions,WindDirDegrees,DateUTC
12:54 AM,33.8,15.8,48,29.89,10.0,NW,8.1,-,N/A,,Overcast,320,2013-03-03 05:54:00
1:54 AM,32.0,15.8,51,29.90,10.0,NNW,11.5,16.1,N/A,,Overcast,330,2013-03-03 06:54:00
2:54 AM,32.0,15.8,51,29.88,10.0,NNW,10.4,-,N/A,,Overcast,340,2013-03-03 07:54:00
3:54 AM,30.2,14.0,51,29.88,10.0,NW,8.1,-,N/A,,Overcast,320,2013-03-03 08:54:00
4:54 AM,30.2,14.0,51,29.89,10.0,NNW,5.8,-,N/A,,Mostly Cloudy,330,2013-03-03 09:54:00
5:54 AM,26.6,15.8,64,29.90,10.0,NW,6.9,-,N/A,,Partly Cloudy,310,2013-03-03 10:54:00
6:54 AM,24.8,15.8,69,29.91,10.0,WNW,6.9,-,N/A,,Clear,300,2013-03-03 11:54:00
7:54 AM,30.0,15.1,54,29.94,10.0,NW,8.1,-,N/A,,Clear,310,2013-03-03 12:54:00
8:54 AM,32.0,15.1,50,29.94,10.0,NNW,12.7,20.7,N/A,,Clear,330,2013-03-03 13:54:00
9:54 AM,35.1,16.0,46,29.94,10.0,NNW,8.1,-,N/A,,Scattered Clouds,330,2013-03-03 14:54:00
11:54 AM,36.0,16.0,44,29.92,10.0,North,5.8,18.4,N/A,,Mostly Cloudy,10,2013-03-03 16:54:00
12:54 PM,41.0,15.8,36,29.89,10.0,NW,13.8,19.6,,,Partly Cloudy,320,2013-03-03 17:54:00
2:54 PM,43.0,16.0,34,29.86,10.0,NW,15.0,21.9,N/A,,Scattered Clouds,310,2013-03-03 19:54:00
3:54 PM,42.1,16.0,35,29.87,10.0,WNW,16.1,21.9,N/A,,Partly Cloudy,300,2013-03-03 20:54:00
4:54 PM,39.9,15.1,36,29.88,10.0,NW,13.8,-,N/A,,Clear,310,2013-03-03 21:54:00
5:54 PM,37.4,14.0,38,29.91,10.0,NW,20.7,24.2,N/A,,Clear,310,2013-03-03 22:54:00
6:54 PM,35.1,14.0,42,29.93,10.0,NW,10.4,-,N/A,,Clear,310,2013-03-03 23:54:00
7:54 PM,33.1,14.0,46,29.95,10.0,NW,12.7,-,N/A,,Clear,320,2013-03-04 00:54:00
8:54 PM,32.0,14.0,48,29.97,10.0,NW,8.1,-,N/A,,Clear,310,2013-03-04 01:54:00
9:54 PM,30.9,12.9,47,29.98,10.0,NW,9.2,-,N/A,,Clear,310,2013-03-04 02:54:00
10:54 PM,30.9,14.0,50,29.98,10.0,NW,10.4,-,N/A,,Overcast,310,2013-03-04 03:54:00
11:54 PM,30.2,10.4,44,29.96,10.0,NNW,9.2,19.6,N/A,,Mostly Cloudy,330,2013-03-04 04:54:00